Weather History for Lapeer, MI

Change the Weather History Date:

Thursday, September 13, 2012

  Actual Average (KFNT) Record (KFNT)
Temperature  
Mean Temperature 68 °F 62 °F  
Max Temperature 81 °F 74 °F 93 °F (1952)
Min Temperature 54 °F 51 °F 33 °F (1964)
Degree Days  
Heating Degree Days 0 4  
Month to date heating degree days 39  
Since 1 July heating degree days 83  
Cooling Degree Days 2 2  
Month to date cooling degree days 31  
Year to date cooling degree days 508  
Growing Degree Days 18 (Base 50)    
Moisture  
Dew Point 58 °F    
Average Humidity 77    
Maximum Humidity 100    
Minimum Humidity 37    
Precipitation  
Precipitation 0.00 in 0.13 in 2.04 in (2008)
Month to date precipitation 1.58  
Year to date precipitation 22.14  
Snow  
Snow - 0.00 in 0.00 in ()
Month to date snowfall 0.0  
Since 1 July snowfall 0.0  
Since 1 September snowfall 0.0  
Snow Depth -    
Sea Level Pressure  
Sea Level Pressure 30.21 in    
Wind  
Wind Speed 3 mph ()    
Max Wind Speed 14 mph    
Max Gust Speed 20 mph    
Visibility 9.7 miles    
Events      
T = Trace of Precipitation, MM = Missing Value Source: Averaged Metar Reports

Daily Weather History Graph

Daily Weather History Graph

Search for Another Location

Airport:

Trip Planner

Search our weather history database for the weather conditions in past years. The results will help you decide how hot, cold, wet, or windy it might be!

Date:

Astronomy

Sep. 13, 2012 Rise Set
Actual Time 7:11 AM EDT 7:45 PM EDT
Civil Twilight 6:42 AM EDT 8:14 PM EDT
Nautical Twilight 6:08 AM EDT 8:48 PM EDT
Astronomical Twilight 5:33 AM EDT 9:22 PM EDT
Moon 4:26 AM EDT (9/13) 6:10 PM EDT (9/13)
Length of Visible Light 13h 31m
Length of Day
12h 34m
Waning Crescent, 7% of the Moon is Illuminated
Sep 13
Waning Crescent
Sep 15
New
Sep 22
First Quarter
Sep 29
Full
Oct 8
Last Quarter

Hourly Weather History & Observations

Time (EDT) Temp. Heat Index Dew Point Humidity Pressure Visibility Wind Dir Wind Speed Gust Speed Precip Events Conditions
12:14 AM 59.4 °F - 59.4 °F 100% 30.20 in 10.0 mi Calm Calm - N/A   Clear
12:33 AM 58.1 °F - 58.1 °F 100% 30.20 in 10.0 mi Calm Calm - N/A   Clear
12:53 AM 56.8 °F - 56.8 °F 100% 30.20 in 10.0 mi Calm Calm - N/A   Clear
1:14 AM 56.1 °F - 56.1 °F 100% 30.20 in 10.0 mi Calm Calm - N/A   Clear
1:33 AM 56.5 °F - 56.5 °F 100% 30.20 in 10.0 mi Calm Calm - N/A   Clear
1:53 AM 55.6 °F - 55.6 °F 100% 30.20 in 10.0 mi Calm Calm - N/A   Clear
2:14 AM 56.1 °F - 56.1 °F 100% 30.20 in 7.0 mi SE 3.5 mph - N/A   Clear
2:33 AM 55.0 °F - 55.0 °F 100% 30.20 in 10.0 mi Calm Calm - N/A   Clear
2:53 AM 55.2 °F - 55.2 °F 100% 30.20 in 7.0 mi Calm Calm - N/A   Clear
3:13 AM 54.9 °F - 54.9 °F 100% 30.20 in 10.0 mi Calm Calm - N/A   Clear
3:33 AM 55.0 °F - 55.0 °F 100% 30.20 in 10.0 mi Calm Calm - N/A   Clear
3:54 AM 54.5 °F - 54.5 °F 100% 30.20 in 10.0 mi Calm Calm - N/A   Clear
4:14 AM 55.0 °F - 55.0 °F 100% 30.20 in 10.0 mi Calm Calm - N/A   Clear
4:33 AM 54.5 °F - 54.5 °F 100% 30.20 in 7.0 mi Calm Calm - N/A   Clear
4:54 AM 54.5 °F - 54.5 °F 100% 30.20 in 7.0 mi Calm Calm - N/A   Clear
5:13 AM 54.5 °F - 54.5 °F 100% 30.20 in 7.0 mi Calm Calm - N/A   Clear
5:33 AM 54.3 °F - 54.3 °F 100% 30.21 in 10.0 mi Calm Calm - N/A   Clear
5:54 AM 55.2 °F - 55.2 °F 100% 30.21 in 7.0 mi South 4.6 mph - N/A   Scattered Clouds
6:13 AM 59.4 °F - 59.0 °F 99% 30.21 in 10.0 mi South 3.5 mph - N/A   Scattered Clouds
6:33 AM 59.0 °F - 58.5 °F 98% 30.21 in 10.0 mi Calm Calm - N/A   Scattered Clouds
6:54 AM 57.6 °F - 57.6 °F 100% 30.21 in 10.0 mi Calm Calm - N/A   Scattered Clouds
7:13 AM 57.7 °F - 57.7 °F 100% 30.22 in 10.0 mi Calm Calm - N/A   Scattered Clouds
7:33 AM 55.8 °F - 55.8 °F 100% 30.22 in 10.0 mi Calm Calm - N/A   Scattered Clouds
7:54 AM 59.9 °F - 59.7 °F 99% 30.22 in 10.0 mi Calm Calm - N/A   Clear
8:13 AM 63.9 °F - 61.7 °F 93% 30.23 in 10.0 mi SSW 3.5 mph - N/A   Mostly Cloudy
8:33 AM 64.6 °F - 61.5 °F 90% 30.23 in 10.0 mi SSW 3.5 mph - N/A   Scattered Clouds
8:54 AM 67.1 °F - 61.7 °F 83% 30.23 in 10.0 mi SW 4.6 mph - N/A   Mostly Cloudy
9:13 AM 69.3 °F - 61.5 °F 76% 30.23 in 10.0 mi SW 6.9 mph - N/A   Mostly Cloudy
9:33 AM 71.2 °F - 60.1 °F 68% 30.24 in 10.0 mi SW 4.6 mph - N/A   Mostly Cloudy
9:54 AM 72.3 °F - 60.3 °F 66% 30.23 in 10.0 mi SSW 5.8 mph - N/A   Mostly Cloudy
10:13 AM 74.7 °F - 60.4 °F 61% 30.24 in 10.0 mi SSW 6.9 mph - N/A   Overcast
10:33 AM 76.3 °F - 60.8 °F 59% 30.24 in 10.0 mi SSW 9.2 mph - N/A   Overcast
10:54 AM 77.2 °F - 61.0 °F 57% 30.24 in 10.0 mi SW 8.1 mph - N/A   Mostly Cloudy
11:13 AM 78.3 °F - 61.0 °F 55% 30.24 in 10.0 mi SSW 10.4 mph - N/A   Mostly Cloudy
11:33 AM 79.0 °F - 60.6 °F 53% 30.24 in 10.0 mi SSW 8.1 mph - N/A   Scattered Clouds
11:54 AM 79.2 °F - 61.2 °F 54% 30.23 in 10.0 mi SSW 8.1 mph - N/A   Clear
12:13 PM 79.5 °F - 60.3 °F 52% 30.23 in 10.0 mi SW 8.1 mph - N/A   Clear
12:33 PM 80.6 °F 81.4 °F 60.3 °F 50% 30.23 in 10.0 mi SSW 11.5 mph - N/A   Clear
12:54 PM 80.2 °F 80.8 °F 58.6 °F 48% 30.23 in 10.0 mi SSW 10.4 mph 17.3 mph N/A   Scattered Clouds
1:13 PM 81.5 °F 82.0 °F 60.3 °F 48% 30.22 in 10.0 mi SSW 9.2 mph - N/A   Scattered Clouds
1:34 PM 81.1 °F 81.4 °F 58.3 °F 46% 30.21 in 10.0 mi WSW 12.7 mph 19.6 mph N/A   Clear
1:54 PM 81.5 °F 81.7 °F 58.8 °F 46% 30.21 in 10.0 mi WSW 13.8 mph 17.3 mph N/A   Scattered Clouds
2:13 PM 80.2 °F 80.6 °F 57.9 °F 46% 30.20 in 10.0 mi SW 11.5 mph 16.1 mph N/A   Mostly Cloudy
2:33 PM 79.3 °F - 59.4 °F 50% 30.20 in 10.0 mi West 6.9 mph - N/A   Overcast
2:54 PM 78.4 °F - 58.8 °F 51% 30.20 in 10.0 mi SW 9.2 mph - N/A   Overcast
3:13 PM 79.0 °F - 57.4 °F 47% 30.19 in 10.0 mi SSW 10.4 mph - N/A   Overcast
3:33 PM 79.7 °F - 56.7 °F 45% 30.19 in 10.0 mi SW 10.4 mph - N/A   Overcast
3:53 PM 78.3 °F - 56.3 °F 47% 30.19 in 10.0 mi WSW 8.1 mph - N/A   Overcast
4:13 PM 81.0 °F 81.0 °F 57.2 °F 44% 30.18 in 10.0 mi SSW 8.1 mph - N/A   Mostly Cloudy
4:34 PM 81.3 °F 81.1 °F 56.1 °F 42% 30.18 in 10.0 mi SW 6.9 mph - N/A   Scattered Clouds
4:54 PM 81.5 °F 81.3 °F 56.7 °F 42% 30.17 in 10.0 mi SW 8.1 mph - N/A   Scattered Clouds
5:13 PM 81.1 °F 80.9 °F 55.0 °F 41% 30.17 in 10.0 mi SW 9.2 mph - N/A   Scattered Clouds
5:34 PM 80.6 °F 80.3 °F 53.6 °F 39% 30.17 in 10.0 mi WSW 10.4 mph 16.1 mph N/A   Scattered Clouds
5:53 PM 81.1 °F - 52.9 °F 37% 30.17 in 10.0 mi WSW 6.9 mph - N/A   Scattered Clouds
6:13 PM 78.6 °F - 53.1 °F 41% 30.17 in 10.0 mi WSW 6.9 mph - N/A   Scattered Clouds
6:34 PM 77.7 °F - 54.1 °F 44% 30.17 in 10.0 mi WSW 3.5 mph - N/A   Overcast
6:53 PM 77.0 °F - 55.2 °F 47% 30.18 in 10.0 mi West 3.5 mph - N/A   Overcast
7:13 PM 71.8 °F - 61.0 °F 69% 30.19 in 10.0 mi NW 9.2 mph 17.3 mph N/A   Overcast
7:34 PM 70.2 °F - 62.1 °F 75% 30.20 in 10.0 mi NNW 9.2 mph 16.1 mph N/A   Overcast
8:13 PM 66.6 °F - 59.2 °F 77% 30.22 in 10.0 mi NNW 9.2 mph - N/A   Overcast
8:34 PM 65.7 °F - 61.5 °F 86% 30.25 in 10.0 mi NW 8.1 mph - N/A   Overcast
8:53 PM 63.7 °F - 62.4 °F 96% 30.25 in 10.0 mi North 11.5 mph - N/A   Overcast
9:13 PM 62.6 °F - 61.7 °F 97% 30.25 in 10.0 mi NNE 9.2 mph - N/A   Overcast
9:34 PM 61.7 °F - 60.8 °F 97% 30.25 in 10.0 mi NNE 6.9 mph - N/A   Overcast
9:53 PM 61.3 °F - 60.8 °F 98% 30.26 in 10.0 mi NNE 6.9 mph - N/A   Overcast
10:13 PM 61.0 °F - 60.8 °F 99% 30.26 in 10.0 mi NE 5.8 mph - N/A   Overcast
10:34 PM 60.8 °F - 60.8 °F 100% 30.25 in 10.0 mi NNE 4.6 mph - N/A   Overcast
10:53 PM 60.4 °F - 60.4 °F 100% 30.26 in 10.0 mi North 5.8 mph - N/A   Overcast
11:13 PM 59.7 °F - 59.7 °F 100% 30.27 in 10.0 mi NNW 8.1 mph - N/A   Light Drizzle
11:34 PM 58.3 °F - 58.3 °F 100% 30.27 in 10.0 mi North 4.6 mph - N/A   Drizzle
11:53 PM 58.1 °F - 58.1 °F 100% 30.27 in 10.0 mi North 3.5 mph - N/A   Drizzle